Regional Weather Roundup
Issued by NWS

Home | Current Version | Previous Version | Graphics & Text | Print | Product List | Glossary Off
Versions: 1 2 3 4 5 6 7 8 9 10 11 12 13 14 15 16 17 18 19 20 21 22 23 24 25 26 27 28 29 30 31 32 33 34 35 36 37 38 39 40 41 42 43 44 45 46 47 48 49 50

648
ASUS43 KLSX 231007
RWRMO
STLRWRMO ALL

WEATHER SUMMARY FOR MISSOURI
NATIONAL WEATHER SERVICE SPRINGFIELD MO
500 AM CDT TUE MAY 23 2017

NOTE: "FAIR" INDICATES FEW OR NO CLOUDS BELOW 12,000 FEET WITH NO
       SIGNIFICANT WEATHER AND/OR OBSTRUCTIONS TO VISIBILITY.
       CURRENT SKY AND/OR WEATHER CONDITIONS ARE NOT AVAILABLE FOR
       CHILLICOTHE AND FARMINGTON.

MOZ001>031-035>038-043-044-053-054-231100-
...NORTHERN AND WESTERN MISSOURI...

CITY           SKY/WX    TMP DP  RH WIND       PRES   REMARKS
KANSAS CTY INT CLOUDY    56  56 100 W7        29.86S FOG
KANSAS C DTWN  CLOUDY    57  56  96 W7        29.86S
LEE`S SUMMIT   CLOUDY    56  56 100 W6        29.86F FOG
ST JOSEPH      PTCLDY    55  54  96 NW12      29.88S
CHILLICOTHE      N/A     57  56  96 SW3       29.85F
KIRKSVILLE     CLOUDY    57  56  96 SW7       29.83F

$$
MOZ066>068-077>081-088>096-101>105-231100-
...SOUTHWEST MISSOURI...

CITY           SKY/WX    TMP DP  RH WIND       PRES   REMARKS
SPRINGFIELD    CLOUDY    59  56  89 CALM      29.83F
JOPLIN         CLEAR     59  57  93 W5        29.85F
BRANSON        CLOUDY    59  54  82 CALM      29.86S

$$
MOZ032>034-039>042-045>050-055>058-069>072-231100-
...CENTRAL MISSOURI...

CITY           SKY/WX    TMP DP  RH WIND       PRES   REMARKS
COLUMBIA       CLOUDY    57  56  96 N3        29.84S
JEFFERSON CITY LGT RAIN  60  54  80 E6        29.82F
ROLLA          CLOUDY    58  53  84 S8        29.81F
SEDALIA        LGT RAIN  57  57 100 NE3       29.85S
WHITEMAN AFB   MOCLDY    54  54 100 N3        29.83F
WARRENSBURG    MOCLDY    54  54 100 CALM      29.84F
OSAGE BEACH    LGT RAIN  57  56  96 CALM      29.83F

$$
MOZ051-052-059>065-231100-
...EAST CENTRAL MISSOURI...

CITY           SKY/WX    TMP DP  RH WIND       PRES   REMARKS
ST LOUIS INTL  CLOUDY    63  56  78 E7        29.84F
SPIRIT OF STL  CLOUDY    61  58  90 CALM      29.82F
ST CHARLES     CLOUDY    60  57  89 SE8       29.82F

$$
MOZ072>076-082>087-097>100-106>115-231100-
...SOUTH CENTRAL AND SOUTHEAST MISSOURI...

CITY           SKY/WX    TMP DP  RH WIND       PRES   REMARKS
CAPE GIRARDEAU CLOUDY    57  54  89 CALM      29.83F
FARMINGTON     CLOUDY    57  54  89 CALM      29.84F
POPLAR BLUFF   PTCLDY    58  57  97 CALM      29.83F
WEST PLAINS    CLOUDY    59  53  80 W3        29.85F

$$




USA.gov is the U.S. government's official web portal to all federal, state and local government web resources and services.